Location: Newark
(7.0858°N, 171.3717°E)
Time: 01:19:31
(UTC+00:00)

Transit 4A - Pass Details

Date: 04 December 2020
Orbit: 864 x 980 km, 66.8° (Epoch: 20 January)

Event Time Altitude Azimuth Distance (km) Brightness Sun altitude
Rises 16:56:57 0° 175° (S) 3,540 11.3 -23.0°
Reaches altitude 10° 16:59:51 10° 163° (SSE) 2,618 10.7 -22.3°
Maximum altitude 17:04:50 26° 108° (ESE) 1,745 10.1 -21.2°
Drops below altitude 10° 17:09:55 10° 53° (NE) 2,679 10.7 -20.0°
Sets 17:12:53 0° 41° (NE) 3,639 11.3 -19.3°
